Skip Page Navigation
NASA JPL Caltech
NASA Logo - Jet Propulsion Laboratory + View the NASA Portal
+ Center for Near-Earth Object Studies
JPL Home Earth Solar System Stars & Galaxies Technology
JPL Solar System Dynamics
BODIES ORBITS EPHEMERIDES TOOLS PHYSICAL DATA DISCOVERY FAQ SITE MAP
JPL Small-Body Database Browser
Search: [ help ]  
70655 (1999 TR256)
Classification: Main-belt Asteroid          SPK-ID: 2070655
Ephemeris | Orbit Diagram | Orbital Elements | Mission Design | Physical Parameters | Discovery Circumstances ]

[ show orbit diagram ]
Orbital Elements at Epoch 2459200.5 (2020-Dec-17.0) TDB
Reference: JPL 22 (heliocentric ecliptic J2000)
 Element Value Uncertainty (1-sigma)   Units 
e .1137966236827277 4.1102e-08  
a 2.433695030949731 1.1298e-08 au
q 2.15674875335422 1.016e-07 au
i 6.435862953146565 4.6273e-06 deg
node 5.356312147054528 3.5722e-05 deg
peri 211.3518788455085 4.058e-05 deg
M 355.3681978380305 2.1351e-05 deg
tp 2459218.342066769438
(2021-Jan-03.84206677)
8.2292e-05 TDB
period 1386.748356770639
3.80
9.657e-06
2.644e-08
d
yr
n .2596000912799654 1.8078e-09 deg/d
Q 2.710641308545242 1.2584e-08 au
  Orbit Determination Parameters
   # obs. used (total)      966  
   data-arc span      9051 days (24.78 yr)  
   first obs. used      1995-08-29  
   last obs. used      2020-06-09  
   planetary ephem.      DE441  
   SB-pert. ephem.      SB441-N16  
   condition code      0  
   norm. resid. RMS      .50933  
   source      ORB  
   producer      Otto Matic  
   solution date      2021-Apr-13 12:51:00  

Additional Information
 Earth MOID = 1.1522 au 
 Jupiter MOID = 2.26556 au 
 T_jup = 3.488 
[ show covariance matrix ]

Ephemeris | Orbit Diagram | Orbital Elements | Mission Design | Physical Parameters | Discovery Circumstances ]

Physical Parameter Table
Parameter Symbol Value Units Sigma Reference Notes
absolute magnitude H 15.34   n/a E2021B10  

70655 (1999 TR256)          Discovered 1999-Oct-09 by LINEAR at Socorro
Reference: 20031109/Numbers.arcLast Updated: 2004-04-19

Alternate Designations
 1999 TR256 = 1998 KY24 = 2001 AO42 
Ephemeris | Orbit Diagram | Orbital Elements | Mission Design | Physical Parameters | Discovery Circumstances ]
ABOUT SSD CREDITS/AWARDS PRIVACY/COPYRIGHT GLOSSARY LINKS
FirstGov 2021-May-12 18:06 UT
(server date/time)  
NASA Home Page
Site Manager:   Ryan S. Park
Webmaster  Alan B. Chamberlin